GFSSE_con_3kmhel_276.txt.gz
Helicity
48 44 40 47 72 136 153 172 195 214 220 200 160 103 79 65 54 59 57 45 37 24 25 28 23 17 17 19 33 45 29 12 -2 -6 -8 -5 -4 -5 -4 -4 2 3 11
139 25 26 68 81 128 141 156 175 187 166 141 108 83 72 55 51 56 48 43 29 22 27 31 26 17 23 30 43 40 10 -10 -2 0 -9 -17 -9 -6 -9 -4 0 -9 0
159 40 11 71 96 127 132 139 149 141 123 108 88 72 58 50 53 53 50 35 27 21 18 15 16 23 27 34 24 14 6 3 -3 -12 -24 -30 -32 -2 -6 -4 -3 -13 -2
166 54 8 68 105 134 118 118 123 103 100 85 72 60 52 57 62 59 43 34 24 15 17 15 12 18 21 19 -3 0 -6 -8 -8 -14 -8 -18 -27 -10 -6 -3 -11 -11 -8
157 67 4 58 109 135 113 103 101 96 66 71 61 56 61 61 64 60 49 38 28 18 12 -1 3 9 14 -23 -20 -14 -9 -13 -6 -14 -3 -27 -37 -20 -9 -7 -7 -8 -4
141 93 28 44 107 128 99 90 84 83 67 55 65 65 62 63 63 57 54 36 25 4 -7 5 17 14 -16 -28 -21 -16 -12 -10 -11 -14 -25 -34 -15 -6 4 -2 1 0 11
159 128 62 50 85 125 98 75 77 64 66 50 59 60 65 61 53 55 45 27 9 -4 -8 8 18 4 -10 -12 -14 -11 -2 4 -6 -9 -23 -19 -7 12 17 14 10 13 14
172 132 95 63 66 115 101 67 60 58 43 46 34 52 56 55 46 39 28 12 -9 -13 -10 -5 -4 -19 -2 1 -3 -2 -4 5 -8 4 -2 -16 7 20 27 28 20 15 8
188 154 105 74 62 79 94 61 50 52 28 28 35 25 36 34 34 16 15 -2 -7 -6 -10 -4 -5 3 8 12 10 3 -2 -1 -6 -3 2 -12 12 28 30 22 21 19 24
187 167 115 106 100 68 63 49 43 37 35 11 24 23 12 11 8 4 -2 -4 1 4 -5 -7 -3 -1 3 12 15 20 18 5 -13 -13 -10 -4 25 35 38 30 29 32 33
152 147 135 115 116 99 72 40 31 27 23 13 -6 13 17 -12 -30 -16 -24 -9 5 18 11 0 0 -2 2 14 24 28 20 -1 -13 -29 -36 17 25 32 30 33 42 43 37
85 147 144 134 118 143 115 65 40 25 11 9 -16 -19 -14 -11 -29 -41 -30 1 18 36 29 16 12 18 19 12 16 17 5 12 7 -24 -31 3 19 33 30 32 34 37 43
55 91 104 121 157 160 137 123 74 41 19 2 -3 -29 -29 -20 -34 -30 -23 -4 20 50 51 43 25 5 17 30 25 19 21 13 12 -18 -22 10 22 37 41 40 39 40 34
49 70 87 92 131 163 173 179 124 69 28 -2 -15 -2 -23 -41 -30 -31 -29 -20 -12 31 60 60 40 19 14 22 30 36 35 31 17 -9 -24 14 27 41 49 54 58 57 48
168 109 146 137 144 154 216 219 184 117 62 23 -5 5 0 -41 -32 -27 -46 -18 -3 21 50 69 68 47 27 26 27 51 45 52 31 5 -15 16 27 40 51 61 58 55 46
224 189 142 125 148 178 188 208 211 180 115 65 31 15 30 -5 -28 -34 -30 -41 -6 27 44 62 70 58 43 36 34 41 57 57 48 22 -7 -4 24 31 43 56 59 49 46
215 109 140 172 185 188 174 174 203 182 169 140 87 62 49 38 12 -23 -35 -23 -26 11 55 69 81 92 65 55 35 40 66 78 67 40 17 11 1 29 37 51 52 40 47
291 238 51 163 125 182 183 210 185 181 195 178 167 141 84 61 40 18 -15 -38 -24 10 33 65 75 98 94 78 52 52 87 89 83 74 39 27 10 14 27 48 45 45 57
318 323 330 108 121 149 177 188 209 165 174 185 199 195 143 106 87 61 38 10 1 1 21 45 67 83 101 118 94 75 82 96 99 98 70 48 36 32 38 37 51 56 75
334 368 388 378 136 142 166 142 142 186 183 144 190 199 197 183 148 127 93 77 85 41 13 43 34 73 92 118 131 103 85 78 100 87 71 56 51 54 55 56 49 48 84
258 340 430 442 422 283 143 142 152 180 210 167 158 166 195 210 206 179 161 136 122 111 77 65 59 27 41 140 189 155 121 86 77 80 47 10 38 65 61 67 74 66 82
180 218 310 406 441 367 231 152 133 138 148 169 152 144 160 192 212 225 214 199 178 168 150 120 112 100 51 136 223 197 135 102 69 56 56 22 16 55 54 61 88 101 112
229 241 227 275 318 344 346 198 116 130 121 105 152 143 161 193 220 227 230 240 232 232 197 180 172 152 115 132 197 221 185 136 173 112 61 51 35 57 58 65 83 95 113
244 200 210 205 222 210 244 299 294 129 101 108 128 158 162 155 156 176 196 246 237 239 235 223 232 198 241 123 199 101 224 160 157 120 112 77 97 90 99 95 120 126 132
182 220 182 171 209 222 173 193 234 255 155 90 117 116 129 162 179 199 215 211 246 260 225 251 237 241 227 198 221 287 218 238 217 186 136 121 140 134 137 135 137 156 177
162 187 203 179 149 231 232 212 195 197 216 197 139 128 153 157 183 181 193 227 215 228 234 266 274 247 245 222 228 213 242 278 320 280 226 151 142 155 170 166 158 163 180

GFSSE_con_3kmhel_279.txt.gz
Helicity
60 78 28 17 41 117 183 190 200 192 191 199 182 140 82 60 56 59 63 59 39 35 26 18 17 9 20 19 21 1 -8 -5 -6 4 -4 -4 0 -4 -2 -9 -10 1 21
128 81 36 12 41 100 176 196 201 202 195 187 147 96 69 62 59 54 54 39 26 34 27 34 28 20 11 13 23 0 11 -2 -12 -6 -7 -7 -11 -8 0 -5 5 7 9
141 97 57 14 48 90 155 183 188 195 152 138 105 73 67 64 54 56 49 40 32 30 24 15 11 9 7 8 13 -2 -9 -12 -17 -12 -20 -23 -22 -9 -1 3 -5 2 3
136 106 70 21 54 82 142 156 152 132 122 89 81 68 68 60 48 51 36 27 21 16 12 7 11 9 4 -8 -13 -11 -8 -12 -12 -14 -16 -20 -25 -16 -7 -7 -3 -8 -9
105 102 76 30 37 74 130 134 111 104 98 77 63 65 61 61 59 44 32 22 15 11 3 1 8 6 -12 -21 -23 -14 -16 -15 -16 -20 -25 -25 -27 -26 -12 -20 -16 -15 -15
114 106 96 62 27 60 97 110 98 82 79 74 55 56 57 71 65 45 32 20 5 -2 -13 -12 -13 -24 -29 -28 -31 -26 -25 -15 -16 -11 -19 -26 -15 -4 2 0 7 20 13
125 114 107 87 42 60 85 88 89 75 55 58 55 51 63 73 56 36 27 4 -16 -20 -21 -19 -18 -14 -22 -23 -28 -21 -6 -26 -3 -10 -9 -9 0 12 14 14 17 15 12
136 124 106 96 59 54 81 78 71 65 53 37 52 54 61 57 47 28 11 -9 -26 -34 -22 -16 -10 -5 -13 -12 -16 -16 -5 -8 -2 4 2 -6 12 21 32 23 20 19 29
116 140 116 87 66 45 58 68 59 51 47 37 36 51 43 42 23 24 2 -15 -19 -24 -19 -17 -4 1 1 2 7 0 -10 -21 4 0 0 -8 7 22 31 27 15 29 37
97 104 116 97 72 66 48 42 48 41 38 34 24 30 38 16 12 4 -11 -23 -23 -15 -11 -7 1 5 7 8 12 15 7 -8 -2 0 -8 -5 2 18 16 13 15 24 26
90 96 96 91 78 71 71 50 39 30 23 30 18 7 27 10 -3 -11 -32 -29 -24 -10 -2 -7 -4 6 10 9 20 23 14 -4 2 -6 -6 8 9 23 24 27 33 26 16
53 77 94 93 84 81 82 79 52 34 19 9 22 17 -12 -10 -21 -21 -24 -30 -27 -9 5 4 1 15 -1 6 11 22 8 13 7 2 -2 7 18 24 26 25 36 38 33
40 57 74 83 90 87 95 96 87 57 25 2 4 17 -16 -31 -20 -23 -8 -15 -17 -10 -2 3 3 -12 -5 4 10 8 18 20 13 5 10 3 16 26 24 27 36 41 33
17 5 69 87 83 105 111 107 101 103 81 36 -3 -5 5 -36 -40 -29 -26 -10 -1 -2 6 4 -1 2 4 3 11 10 19 24 18 11 14 0 12 22 25 31 37 37 22
120 48 -13 43 102 127 129 124 121 107 108 78 44 6 -10 -10 -36 -36 -29 -21 -15 13 33 33 20 12 11 14 12 13 17 20 17 17 12 10 14 23 28 37 40 32 25
221 133 154 19 47 99 197 165 141 135 119 111 95 49 17 -11 -12 -30 -34 -23 -13 1 21 45 51 40 26 27 24 22 22 22 27 27 15 18 11 23 26 39 34 31 30
189 185 135 99 51 72 46 136 208 161 133 118 108 94 58 23 -1 3 -19 -33 -7 12 33 48 47 53 60 49 32 34 33 31 35 41 16 18 24 13 20 40 33 27 30
177 176 172 157 77 68 96 88 115 156 169 149 119 105 89 63 38 13 2 -7 -16 8 28 43 58 48 51 60 56 40 42 48 45 43 40 30 22 10 16 28 31 27 35
194 205 171 188 199 172 71 114 124 106 158 193 173 135 95 98 90 62 27 26 40 17 20 21 39 58 59 66 62 58 64 67 62 57 52 40 26 5 1 43 24 25 50
189 209 202 161 196 228 171 104 130 133 121 183 188 143 102 116 105 108 86 60 61 57 34 46 58 54 75 66 73 67 68 88 93 84 72 52 20 15 -1 -1 27 22 54
104 195 218 222 207 176 214 194 113 152 135 122 167 148 112 124 121 126 113 100 103 64 69 84 75 75 77 95 95 77 75 83 103 101 102 59 22 13 8 2 4 5 32
137 134 191 210 199 154 158 203 104 134 134 143 155 145 165 128 143 142 144 124 117 139 124 115 123 134 118 135 136 105 65 52 85 115 124 96 29 9 6 19 20 23 11
140 161 169 193 197 139 156 133 160 131 104 132 172 150 168 162 144 149 141 155 140 151 149 145 149 142 146 170 171 162 122 78 62 115 122 101 68 41 20 23 38 44 49
141 103 118 171 199 185 153 143 163 126 163 107 115 131 118 152 114 132 144 154 160 154 156 157 155 157 168 136 196 122 228 166 66 42 107 106 78 68 57 51 58 70 86
86 114 94 104 142 180 207 136 97 163 170 100 193 40 129 53 115 108 137 147 168 199 166 177 185 187 178 171 170 181 182 227 181 129 48 69 114 93 87 72 81 87 109
34 94 111 133 113 155 174 193 157 119 158 144 141 113 86 158 45 84 86 131 167 172 176 188 201 179 204 192 163 170 187 240 233 209 147 113 68 73 110 118 98 112 111

GFSSE_con_3kmhel_282.txt.gz
Helicity
79 69 38 12 16 53 122 169 169 168 150 144 147 118 80 62 56 51 57 46 40 31 31 16 9 15 12 -3 -11 -10 -3 3 -1 -0 -4 -8 -7 -7 -21 -23 -7 2 8
92 68 43 28 29 69 119 166 176 174 159 138 135 106 72 61 59 57 49 43 35 28 19 12 25 18 5 -13 -9 -3 -0 -1 -7 -9 -13 -10 -5 -2 7 11 -4 -10 -6
67 64 61 50 33 85 129 162 171 160 152 126 110 90 67 61 56 38 32 43 34 22 20 21 19 4 -6 -21 -12 -7 -9 -22 -7 20 -5 -24 -16 -2 2 -2 -8 -14 -17
47 56 60 69 39 84 137 152 138 135 117 110 86 71 66 62 54 39 32 26 14 25 23 23 11 -10 -17 -15 -15 -20 -29 -29 -12 -13 -16 -17 -17 -16 -11 -13 -16 -14 -10
53 58 65 84 52 77 113 127 115 96 90 93 70 59 59 53 47 30 20 14 14 12 19 6 -2 -13 -14 -17 -20 -25 -29 -19 15 17 -19 -20 -16 -15 -6 -8 -4 -13 -0
45 64 66 83 68 57 89 106 88 84 64 60 63 51 48 44 42 26 5 4 2 -5 6 -8 -11 -11 -19 -21 -22 -32 -24 50 30 -13 -13 -19 -10 -7 -7 11 15 15 11
39 59 53 66 74 45 53 82 71 64 63 42 39 50 37 41 33 11 1 -0 -11 8 3 -23 -17 -14 -11 -18 -19 -28 -38 58 -31 -16 -11 -15 -6 -2 3 13 13 13 14
36 57 54 50 62 47 29 59 67 55 45 45 28 26 38 30 19 5 -3 -8 -7 -20 -27 -12 -10 -9 -1 -4 -7 -13 -35 -29 -22 -3 -12 -4 -5 -0 15 17 11 12 12
46 53 59 55 45 41 24 22 48 51 36 30 33 18 21 19 2 -11 -15 5 -10 -23 -21 -13 -9 -5 4 5 6 -4 -33 61 -10 -4 -7 -3 8 13 21 18 34 28 15
53 57 63 61 50 36 27 22 20 28 28 24 21 18 5 2 -19 -27 -21 26 16 -11 -15 -6 -5 -4 6 8 6 8 -12 -16 5 6 6 -4 4 13 16 13 24 22 18
48 58 60 63 69 64 50 46 44 22 10 16 21 12 10 -6 -8 -22 8 -9 5 -4 -17 -4 7 7 14 9 6 3 10 -0 5 3 13 9 5 14 8 14 24 20 18
8 41 55 63 68 67 63 69 48 47 15 11 12 24 -3 -17 -24 -16 -31 -5 24 13 1 12 19 13 -10 9 11 -3 9 12 8 6 31 8 -3 6 11 14 21 17 16
88 12 25 48 69 69 75 68 62 59 53 -0 9 5 -12 -24 -41 -44 -19 -42 -32 -16 -4 2 11 -3 -1 -3 11 -1 10 8 17 15 50 14 -1 3 8 13 24 18 20
160 164 156 55 47 58 82 78 68 66 66 61 11 14 -14 -27 -31 -48 -35 -31 -33 -22 -7 -6 3 2 10 7 10 9 5 8 16 19 45 8 3 8 14 18 23 20 15
144 129 135 111 90 27 40 71 80 77 80 65 74 29 -2 -20 -38 -42 -32 -30 -25 -20 -17 -15 1 10 15 19 19 21 16 16 15 15 28 33 4 9 18 25 26 19 18
144 158 117 92 55 76 28 37 42 63 83 96 79 69 22 -15 -36 -45 -43 -27 -21 -4 -8 -15 -19 -2 9 21 26 23 25 23 19 17 22 40 8 6 11 24 24 21 19
130 110 134 128 79 34 48 30 50 46 55 59 83 85 73 64 60 -11 -45 -53 -37 2 15 14 -3 -11 -4 11 20 35 30 26 28 29 17 24 35 5 7 17 21 23 18
128 135 98 96 104 144 95 121 65 43 58 67 60 71 83 79 64 61 16 -23 -54 -42 20 29 29 14 1 4 11 19 28 32 35 38 30 23 30 19 23 4 22 24 18
164 147 128 113 99 139 119 96 94 74 103 71 81 67 59 79 86 79 66 51 6 -43 -40 3 48 41 32 18 13 20 25 22 43 49 50 52 42 14 26 81 38 14 19
151 146 144 112 129 117 94 100 72 87 96 92 89 109 66 65 77 93 86 73 76 42 17 18 24 51 52 47 39 34 28 27 27 46 62 70 67 44 11 33 29 9 25
62 130 151 149 150 121 104 124 103 70 132 94 85 117 104 66 51 71 92 89 95 83 73 71 61 18 36 58 61 56 51 46 37 34 67 78 85 61 46 17 8 3 46
62 60 98 127 124 116 134 114 99 135 96 79 60 110 107 83 113 86 89 91 97 106 107 117 112 64 36 62 90 62 35 40 60 69 64 88 84 58 47 40 20 8 -1
52 52 41 51 90 91 129 123 148 119 124 117 93 73 111 83 97 153 117 101 107 114 120 122 124 118 108 64 78 95 65 35 29 75 75 76 90 79 38 43 41 29 20
29 18 13 41 26 47 81 95 151 136 165 172 127 123 131 105 156 107 145 113 109 134 107 122 116 117 121 105 101 25 14 83 45 32 36 50 54 68 69 40 48 38 34
18 20 26 26 27 31 46 67 71 116 121 160 159 150 129 165 80 124 142 84 109 135 103 91 94 106 123 117 118 83 58 47 91 80 46 -10 22 52 66 71 49 55 61
12 17 27 45 33 43 38 51 66 80 116 108 149 160 153 131 104 36 155 116 147 96 86 81 71 76 97 119 110 127 103 86 88 89 59 45 48 25 43 64 73 57 67

GFSSE_con_3kmhel_288.txt.gz
Helicity
18 11 16 27 36 46 43 43 43 51 39 7 13 16 9 11 14 15 11 12 11 7 11 24 33 24 11 4 -2 -2 1 -2 -9 4 25 6 4 3 6 14 21 20 27
51 8 17 37 47 43 34 41 47 53 37 16 14 13 15 9 9 8 5 4 5 11 10 23 10 4 -5 -13 -20 -21 -27 -25 -25 -18 3 38 37 30 44 40 6 -8 16
31 11 23 38 65 55 44 35 38 52 38 17 12 14 11 15 12 11 7 7 3 6 7 12 -3 -9 -14 -22 -33 -45 -51 -62 -86 -47 5 -10 3 14 4 -7 6 16 12
13 4 17 17 73 67 56 41 32 38 42 28 7 11 14 19 20 17 13 2 -12 -0 -0 1 -7 -9 -17 -30 -33 -24 -29 -53 -35 48 -10 -6 -4 -3 -5 -8 -0 4 8
39 11 6 3 38 59 54 50 37 36 33 38 12 13 19 20 19 19 13 11 16 10 -4 -0 -6 -7 -23 -24 -36 -17 17 21 51 59 -17 -10 -5 -3 -5 17 30 42 28
24 16 12 10 15 35 40 38 47 38 33 26 27 7 15 22 22 19 25 30 27 9 -0 -8 -7 -17 -20 -35 -23 1 40 73 64 6 26 6 -8 -4 4 35 27 27 29
2 13 13 13 19 30 35 32 30 41 36 27 17 9 4 20 23 18 22 27 26 14 -1 -13 -14 -19 -23 -35 -10 31 75 171 -5 42 36 11 -0 17 13 14 26 27 25
3 -0 10 16 19 21 27 33 29 23 30 36 24 4 4 7 16 21 20 19 19 13 -0 -15 -20 -23 -23 -34 -12 25 98 163 71 31 36 14 10 15 21 18 19 22 23
5 -5 -3 6 17 22 22 32 40 33 20 22 31 14 -2 -0 10 15 23 25 20 13 -4 -17 -18 -23 -28 -28 -17 6 60 74 -8 16 34 19 26 24 31 34 18 21 22
178 7 1 -5 11 17 14 22 32 44 43 28 24 21 11 -3 5 9 6 17 24 17 -0 -9 -17 -22 -21 -19 -11 -20 -26 -3 -16 8 80 34 36 32 35 39 25 20 23
188 165 152 158 23 20 44 33 29 29 34 41 31 19 14 6 9 8 26 18 11 8 4 -9 -12 -9 -8 -8 -8 -15 -5 1 18 89 76 46 37 32 30 39 30 25 24
164 157 112 104 96 51 29 34 24 40 29 22 28 32 -13 -14 2 14 51 22 14 7 7 -1 -10 -8 -7 3 -10 7 43 63 46 118 78 56 41 33 36 44 37 34 25
107 129 126 69 65 52 63 29 2 47 2 18 35 45 -2 -4 36 34 42 22 15 4 6 3 -6 -33 -11 -14 23 58 30 -17 26 74 51 56 50 33 44 40 40 35 27
132 144 168 88 66 54 38 37 -1 7 36 47 61 83 12 27 35 33 47 21 4 40 6 7 22 11 30 13 20 10 -11 19 75 69 54 71 58 38 32 35 45 33 31
133 153 159 117 75 92 45 35 33 1 34 7 77 95 50 18 33 48 13 59 33 50 23 36 14 17 -1 13 12 11 12 29 55 59 48 71 56 46 37 38 44 42 29
105 131 138 112 93 139 74 35 36 51 26 38 31 72 120 29 10 73 38 59 51 54 44 66 29 46 46 31 54 15 22 12 26 71 58 56 62 51 43 41 46 45 36
135 125 143 115 104 147 115 90 28 44 39 38 19 30 80 103 36 33 70 57 57 77 65 81 68 55 62 28 58 58 24 33 31 49 80 66 61 61 48 42 41 41 35
176 156 138 99 125 156 118 123 89 62 45 68 62 43 49 76 93 56 61 57 67 67 88 99 96 86 63 44 34 81 76 44 52 76 60 132 92 77 72 53 47 39 34
124 140 143 91 108 153 158 144 118 97 42 6 -8 95 86 60 69 93 84 69 70 85 87 113 88 94 78 77 58 67 69 74 72 102 101 62 146 88 80 88 77 57 50
48 84 91 84 69 61 100 175 140 120 132 35 3 10 74 118 74 86 64 64 56 93 100 116 112 103 83 83 61 48 96 87 71 65 137 145 103 150 177 116 73 57 72
27 57 65 82 68 29 72 98 150 196 223 121 -16 28 43 109 80 87 87 -3 33 90 115 107 132 107 95 93 82 66 82 113 123 104 81 140 180 155 156 267 184 114 68
17 12 20 36 37 31 45 48 80 150 155 153 13 6 76 52 111 196 128 51 -140 78 94 128 95 139 134 122 103 96 86 88 128 143 123 72 124 212 211 253 222 137 106
20 32 30 13 -6 4 18 17 40 69 90 108 151 35 67 67 85 78 190 124 67 64 48 91 93 129 124 134 129 160 126 102 99 153 202 167 77 149 217 225 272 174 112
54 8 35 24 5 -6 -11 -10 20 16 32 60 51 66 65 10 112 96 112 40 82 77 -54 39 107 144 145 143 166 134 122 159 123 109 101 224 170 88 154 185 215 215 141
76 47 13 61 31 3 -14 -9 -16 -9 -6 -19 -11 19 43 36 1 86 94 148 168 128 189 133 41 109 151 172 191 181 135 111 120 147 86 105 154 84 85 166 133 166 228
82 97 39 65 51 17 9 4 -3 -0 -1 -15 -30 -36 -20 7 33 41 84 113 145 168 93 92 127 27 61 137 170 164 170 186 159 192 181 98 129 116 99 93 127 132 163